Location: Estes Park
(40.3770°N, 105.5210°W)
Time: 04:30:07
(UTC-07:00)

Vanguard 3 - All Passes

Search period start: 24 January 2018 00:00
Search period end: 03 February 2018 00:00
Orbit: 508 x 3264 km, 33.4° (Epoch: 23 January)

Date Brightness Start Highest point End Pass type
(mag) Time Alt. Az. Time Alt. Az. Time Alt. Az.
24 Jan - 01:25:05 10° WSW 01:39:14 69° S 01:59:01 10° E visible
24 Jan - 03:38:29 10° W 03:55:31 59° SSW 04:14:23 10° SE visible
24 Jan - 05:54:27 10° W 06:10:41 34° SW 06:25:39 10° SSE visible
24 Jan - 22:01:22 10° SSW 22:09:57 37° SE 22:23:38 10° E night (unlit)
25 Jan - 00:11:16 10° WSW 00:23:12 64° SSE 00:41:53 10° E visible
25 Jan - 02:23:34 10° W 02:38:54 66° S 02:58:38 10° ESE visible
25 Jan - 04:37:53 10° W 04:54:49 46° SSW 05:12:12 10° SE visible
25 Jan - 06:56:47 10° W 07:08:47 20° SW 07:19:50 10° S daylight
25 Jan - 20:50:08 10° S 20:56:22 22° SE 21:05:15 10° E visible
25 Jan - 22:58:05 10° SW 23:07:57 53° SSE 23:24:21 10° E visible
26 Jan - 01:09:17 10° WSW 01:22:31 68° S 01:42:00 10° ESE visible
26 Jan - 03:22:23 10° W 03:38:29 56° SSW 03:57:28 10° SE visible
26 Jan - 05:38:15 10° W 05:53:32 31° SW 06:08:29 10° SSE visible
26 Jan - 21:45:39 10° SSW 21:53:36 39° SSE 22:06:38 10° E night (unlit)
26 Jan - 23:55:36 10° WSW 00:06:41 64° S 00:24:45 10° E visible
27 Jan - 02:07:41 10° W 02:22:03 63° SSW 02:41:37 10° ESE visible
27 Jan - 04:21:45 10° W 04:37:43 42° SSW 04:55:07 10° SSE visible
27 Jan - 06:41:17 10° W 06:51:43 17° SW 07:01:46 10° SSW visible
27 Jan - 20:34:14 10° S 20:40:05 23° SE 20:48:37 10° E visible
27 Jan - 22:42:30 10° SW 22:51:36 55° SSE 23:07:13 10° E night (unlit)
28 Jan - 00:53:35 10° W 01:05:53 66° S 01:24:53 10° ESE visible
28 Jan - 03:06:25 10° W 03:21:30 52° SSW 03:40:21 10° SE visible
28 Jan - 05:22:17 10° W 05:36:26 28° SW 05:51:00 10° S visible
28 Jan - 21:30:02 10° SW 21:37:22 40° SSE 21:49:39 10° E visible
28 Jan - 23:40:02 10° WSW 23:50:17 64° S 00:07:35 10° E visible
29 Jan - 01:51:54 10° W 02:05:17 60° SSW 02:24:28 10° ESE visible
29 Jan - 04:05:47 10° W 04:20:40 38° SSW 04:37:47 10° SSE visible
29 Jan - 06:26:30 10° WSW 06:34:43 14° SW 06:42:54 10° SSW visible
29 Jan - 20:18:29 10° S 20:23:54 24° SE 20:32:00 10° E visible
29 Jan - 22:27:00 10° WSW 22:35:23 56° SSE 22:50:05 10° E night (unlit)
30 Jan - 00:37:58 10° W 00:49:22 64° S 01:07:40 10° ESE visible
30 Jan - 02:50:35 10° W 03:04:37 48° SSW 03:23:02 10° SE visible
30 Jan - 05:06:37 10° W 05:19:25 24° SW 05:33:07 10° S visible
30 Jan - 19:10:25 10° SE 19:11:02 10° SE 19:11:41 10° SE visible
30 Jan - 21:14:31 10° SW 21:21:16 41° SSE 21:32:43 10° E visible
30 Jan - 23:24:34 10° WSW 23:34:00 63° S 23:50:23 10° E visible
31 Jan - 01:36:13 10° W 01:48:37 56° SSW 02:07:08 10° SE visible
31 Jan - 03:50:01 10° W 04:03:43 34° SSW 04:20:09 10° SSE visible
31 Jan - 06:13:25 10° WSW 06:17:48 11° SW 06:22:15 10° SW visible
31 Jan - 20:02:49 10° SSW 20:07:52 25° SE 20:15:26 10° E visible
31 Jan - 22:11:35 10° WSW 22:19:17 56° SSE 22:33:00 10° E night (unlit)
01 Feb - 00:22:27 10° W 00:32:58 61° S 00:50:23 10° ESE visible
01 Feb - 02:34:53 10° W 02:47:50 43° SSW 03:05:31 10° SE visible
01 Feb - 04:51:20 10° W 05:02:29 20° SW 05:14:47 10° S visible
01 Feb - 18:53:30 10° SSE 18:55:00 11° SE 18:56:39 10° ESE visible
01 Feb - 20:59:05 10° SW 21:05:16 42° SSE 21:15:52 10° E visible
01 Feb - 23:09:08 10° WSW 23:17:49 62° S 23:33:11 10° ESE night (unlit)
02 Feb - 01:20:38 10° W 01:32:04 52° SSW 01:49:41 10° SE visible
02 Feb - 03:34:28 10° W 03:46:53 30° SSW 04:02:14 10° SSE visible
02 Feb - 19:47:15 10° SSW 19:51:56 26° SE 19:58:57 10° E visible
02 Feb - 21:56:13 10° WSW 22:03:18 56° SSE 22:15:58 10° E visible
